[[{"header":{"parameterUnit":"m.s-1","parameterCategory":1,"la1":30.2991,"la2":30.254,"lo1":-89.0895,"lo2":-89.0444,"dy":0.0017,"dx":0.0017,"nx":28,"ny":28,"refTime":"2024-03-16T09:00:00:Z","depth":0,"parameterNumber":2,"parameterNumberName":"U-component_of_WINDS"},"data":[0,0,0,0,0,0,0,0,0,0,0,0,0,0,0,0,0,0,0,0,0,0,0,0,0,0,0,0,0,0,0,0,0,0,0,0,0,0,0,0,0,0,0,0,0,0,0,0,0,0,0,0,0,0,0,0,0,0,-1.0906,-1.0905,0,-1.0825,-1.0824,-1.0823,-1.0797,-1.0797,-1.0798,-1.0798,-1.0713,-1.0711,-1.0708,0,0,0,0,0,0,0,0,0,0,0,0,0,-1.1037,-1.1035,-1.0906,-1.0905,-1.0904,-1.0825,-1.0824,-1.0823,-1.0797,-1.0797,-1.0798,-1.0798,-1.0714,-1.0711,-1.0708,0,0,0,0,0,0,0,0,0,0,0,0,0,-1.0971,-1.1034,-1.0907,-1.0882,-1.0879,-1.0825,-1.0824,-1.0823,-1.0797,-1.0797,-1.0798,-1.0798,-1.0715,-1.0711,-1.0708,-1.0673,0,0,-1.0696,-1.0694,0,0,0,0,0,0,0,0,-1.0975,-1.0966,-1.0886,-1.0883,-1.088,-1.0822,-1.0839,-1.0772,-1.0796,-1.0828,-1.0798,-1.0799,-1.0749,-1.0742,-1.0726,-1.0669,-1.0665,-1.0695,-1.0693,-1.0691,-1.069,0,0,0,0,0,0,0,-1.0979,-1.0969,-1.0874,-1.0885,-1.0881,-1.0874,-1.0865,-1.0826,-1.0786,-1.0825,-1.0823,-1.0814,-1.0747,-1.073,-1.0724,-1.0664,-1.0696,-1.0692,-1.069,-1.0688,-1.0573,-1.0573,0,0,0,0,0,0,-1.0988,-1.0973,-1.0877,-1.0872,-1.093,-1.0871,-1.0861,-1.084,-1.0787,-1.0779,-1.0813,-1.0813,-1.0736,-1.0728,-1.072,-1.0676,-1.0691,-1.0688,-1.0686,-1.0574,-1.0573,-1.0572,0,0,0,0,0,0,-1.0991,-1.098,-1.088,-1.0922,-1.0909,-1.0869,-1.0844,-1.0838,-1.082,-1.0778,-1.077,-1.0803,-1.0736,-1.0726,-1.0685,-1.0672,-1.0686,-1.0682,-1.0575,-1.0574,-1.0573,-1.0586,0,0,0,0,0,0,-1.0995,-1.0981,-1.0968,-1.0922,-1.0906,-1.0846,-1.0844,-1.0836,-1.0814,-1.0812,-1.0766,-1.0759,-1.0736,-1.0691,-1.0681,-1.0667,-1.0679,-1.0576,-1.0574,-1.0573,-1.0587,-1.0586,-1.0585,0,0,0,0,0,-1.1,-1.0975,-1.0967,-1.0956,-1.0889,-1.0845,-1.0837,-1.0811,-1.0813,-1.0799,-1.0771,-1.076,-1.0675,-1.0687,-1.0675,-1.0661,-1.0576,-1.0575,-1.0573,-1.0587,-1.0586,-1.0585,0,0,0,0,0,0,-1.102,-1.0968,-1.0959,-1.0919,-1.0887,-1.0841,-1.0823,-1.0811,-1.0777,-1.0777,-1.0746,-1.0736,-1.0697,-1.0674,-1.0688,-1.0624,-1.0625,-1.0621,-1.064,-1.0638,-1.0637,-1.0644,-1.0676,0,0,0,0,0,-1.1019,-1.0989,-1.0945,-1.0913,-1.0898,-1.0863,-1.0843,-1.0826,-1.0791,-1.0778,-1.0747,-1.0714,-1.068,-1.0658,-1.0624,-1.0583,-1.0573,-1.0567,-1.0567,-1.0566,-1.0563,-1.054,-1.0537,-1.0567,-1.0567,-1.0567,0,0,-1.1018,-1.0986,-1.0969,-1.0916,-1.089,-1.0858,-1.0852,-1.0819,-1.0795,-1.0772,-1.0732,-1.0708,-1.0669,-1.0628,-1.0608,-1.0608,-1.0552,-1.0564,-1.0564,-1.0561,-1.0538,-1.0535,-1.0532,-1.0566,-1.0566,-1.0566,0,0,-1.1,-1.0973,-1.0944,-1.0917,-1.0877,-1.0854,-1.0847,-1.0803,-1.0786,-1.0745,-1.0728,-1.0699,-1.064,-1.0613,-1.0591,-1.0563,-1.0551,-1.0552,-1.0548,-1.0525,-1.0523,-1.0521,-1.0511,-1.0507,-1.055,-1.055,-1.055,0,-1.1004,-1.0956,-1.093,-1.0898,-1.0875,-1.0854,-1.0823,-1.0798,-1.0749,-1.0734,-1.0734,-1.066,-1.0632,-1.0584,-1.0578,-1.0561,-1.0551,-1.0558,-1.0526,-1.0523,-1.0521,-1.051,-1.0507,-1.055,-1.055,-1.055,-1.055,0,-1.0963,-1.093,-1.0911,-1.0864,-1.0839,-1.0808,-1.0776,-1.0754,-1.0739,-1.0716,-1.0674,-1.064,-1.0598,-1.0586,-1.0571,-1.0536,-1.0537,-1.0532,-1.0533,-1.0519,-1.0509,-1.0504,-1.0551,-1.055,-1.055,-1.055,0,0,-1.0955,-1.0894,-1.0887,-1.0866,-1.082,-1.0794,-1.0761,-1.0721,-1.0703,-1.0669,-1.0641,-1.0592,-1.0587,-1.0563,-1.0545,-1.0525,-1.0504,-1.0522,-1.0521,-1.052,-1.0463,-1.0467,-1.0463,-1.0496,-1.0495,-1.0495,-1.0466,0,-1.0931,-1.0873,-1.0848,-1.0801,-1.077,-1.075,-1.0721,-1.069,-1.0667,-1.0637,-1.0612,-1.0578,-1.0574,-1.0559,-1.0539,-1.0511,-1.0492,-1.0513,-1.0469,-1.0468,-1.048,-1.0458,-1.0462,-1.0437,-1.0462,-1.0462,-1.0461,0,-1.0895,-1.0862,-1.0812,-1.077,-1.0756,-1.0731,-1.0692,-1.0664,-1.0628,-1.0612,-1.0585,-1.0568,-1.0533,-1.0536,-1.0487,-1.0501,-1.0482,-1.0466,-1.0464,-1.0459,-1.0464,-1.0452,-1.0429,-1.0425,-1.0455,-1.0455,-1.0456,0,-1.0895,-1.0838,-1.08,-1.0783,-1.0732,-1.0715,-1.0693,-1.0657,-1.0635,-1.06,-1.0585,-1.0548,-1.0527,-1.0498,-1.047,-1.0476,-1.0424,-1.0425,-1.041,-1.0411,-1.04,-1.0401,-1.0373,-1.0388,-1.0388,-1.0388,-1.0388,0,-1.0871,-1.0841,-1.0799,-1.0777,-1.0743,-1.0714,-1.0681,-1.0657,-1.0626,-1.0597,-1.0577,-1.0551,-1.0516,-1.0485,-1.0464,-1.0426,-1.0417,-1.0404,-1.0398,-1.0405,-1.0407,-1.0393,-1.0394,-1.0387,-1.0387,-1.0387,-1.0387,0,-1.0864,-1.0835,-1.0793,-1.0749,-1.0737,-1.0714,-1.0676,-1.0653,-1.0629,-1.0594,-1.0583,-1.0546,-1.0509,-1.0479,-1.043,-1.0416,-1.0376,-1.037,-1.0389,-1.0386,-1.0373,-1.0375,-1.0334,-1.0327,-1.0347,-1.0347,-1.0347,0,-1.0851,-1.0828,-1.0781,-1.0761,-1.0739,-1.0707,-1.0684,-1.0655,-1.0632,-1.0588,-1.057,-1.0532,-1.0499,-1.0441,-1.0409,-1.0372,-1.0364,-1.0353,-1.0359,-1.0367,-1.0364,-1.0366,-1.0363,-1.0352,-1.0352,-1.0352,-1.0352,0,-1.083,-1.0817,-1.0785,-1.0748,-1.0721,-1.069,-1.0659,-1.0644,-1.0608,-1.0583,-1.0545,-1.052,-1.0471,-1.0432,-1.0392,-1.0368,-1.0354,-1.0351,-1.0345,-1.0352,-1.0364,-1.0358,-1.0387,-1.0352,-1.0352,-1.0352,-1.0352,-1.0352,-1.082,-1.0798,-1.0762,-1.0727,-1.07,-1.0672,-1.0648,-1.0621,-1.0589,-1.0547,-1.0531,-1.0492,-1.0456,-1.0399,-1.0376,-1.0345,-1.0343,-1.0335,-1.0333,-1.0332,-1.0333,-1.0369,-1.0337,-1.0337,-1.0337,-1.0337,-1.0337,0,-1.0798,-1.0774,-1.0742,-1.0699,-1.0671,-1.0661,-1.0625,-1.0603,-1.0569,-1.0536,-1.0505,-1.0461,-1.0424,-1.0389,-1.035,-1.0332,-1.0324,-1.0323,-1.0324,-1.0319,-1.0336,-1.0345,-1.0329,-1.0329,-1.0329,-1.0329,-1.0329,-1.0329,-1.0784,-1.0747,-1.0729,-1.0678,-1.0654,-1.0616,-1.0597,-1.057,-1.0544,-1.0496,-1.0465,-1.0443,-1.0409,-1.0367,-1.0333,-1.0323,-1.031,-1.031,-1.0299,-1.0316,-1.0317,-1.0318,-1.0326,-1.0307,-1.0307,-1.0284,-1.0284,-1.0284]},{"header":{"parameterUnit":"m.s-1","parameterCategory":1,"la1":30.2991,"la2":30.254,"lo1":-89.0895,"lo2":-89.0444,"dy":0.0017,"dx":0.0017,"nx":28,"ny":28,"refTime":"2024-03-16T09:00:00:Z","depth":0,"parameterNumber":3,"parameterNumberName":"V-component_of_WINDS"},"data":[0,0,0,0,0,0,0,0,0,0,0,0,0,0,0,0,0,0,0,0,0,0,0,0,0,0,0,0,0,0,0,0,0,0,0,0,0,0,0,0,0,0,0,0,0,0,0,0,0,0,0,0,0,0,0,0,0,0,-1.4257,-1.4258,0,-1.429,-1.429,-1.429,-1.4317,-1.4318,-1.4318,-1.4318,-1.4347,-1.4348,-1.4348,0,0,0,0,0,0,0,0,0,0,0,0,0,-1.4216,-1.4216,-1.4257,-1.4258,-1.4258,-1.429,-1.429,-1.429,-1.4317,-1.4318,-1.4318,-1.4318,-1.4347,-1.4348,-1.4349,0,0,0,0,0,0,0,0,0,0,0,0,0,-1.4239,-1.4217,-1.4257,-1.4275,-1.4277,-1.4289,-1.429,-1.4291,-1.4317,-1.4318,-1.4318,-1.4318,-1.4347,-1.4348,-1.4349,-1.4344,0,0,-1.4351,-1.4351,0,0,0,0,0,0,0,0,-1.4238,-1.4241,-1.4272,-1.4274,-1.4276,-1.43,-1.4286,-1.4308,-1.4317,-1.4302,-1.4318,-1.4319,-1.4331,-1.4333,-1.4338,-1.4346,-1.4347,-1.4351,-1.4351,-1.4352,-1.4352,0,0,0,0,0,0,0,-1.4236,-1.424,-1.427,-1.4273,-1.4275,-1.4281,-1.4285,-1.4291,-1.4313,-1.4303,-1.4305,-1.4309,-1.4332,-1.4337,-1.4339,-1.4347,-1.4351,-1.4352,-1.4352,-1.4352,-1.4354,-1.4354,0,0,0,0,0,0,-1.4232,-1.4238,-1.4269,-1.4271,-1.4258,-1.4281,-1.4286,-1.4292,-1.4313,-1.4317,-1.4309,-1.431,-1.4336,-1.4338,-1.434,-1.4338,-1.4352,-1.4352,-1.4353,-1.4355,-1.4354,-1.4354,0,0,0,0,0,0,-1.4231,-1.4235,-1.4268,-1.4255,-1.426,-1.4282,-1.4288,-1.4292,-1.4297,-1.4318,-1.4321,-1.431,-1.4336,-1.4339,-1.4344,-1.4339,-1.4353,-1.4353,-1.4355,-1.4355,-1.4354,-1.4333,0,0,0,0,0,0,-1.423,-1.4234,-1.4233,-1.4255,-1.426,-1.4271,-1.4288,-1.4293,-1.4299,-1.4301,-1.432,-1.4323,-1.4337,-1.4342,-1.4344,-1.4341,-1.4354,-1.4356,-1.4355,-1.4354,-1.4334,-1.4331,-1.4329,0,0,0,0,0,-1.4229,-1.4225,-1.4233,-1.4237,-1.426,-1.4271,-1.4274,-1.4291,-1.4299,-1.4298,-1.4311,-1.4323,-1.4339,-1.4343,-1.4345,-1.4341,-1.4356,-1.4355,-1.4354,-1.4335,-1.4332,-1.4329,0,0,0,0,0,0,-1.42,-1.4228,-1.4238,-1.4241,-1.4254,-1.4276,-1.4275,-1.4287,-1.4297,-1.4298,-1.4318,-1.4322,-1.4324,-1.4333,-1.4336,-1.4339,-1.4349,-1.4349,-1.4334,-1.4331,-1.4329,-1.4327,-1.4355,0,0,0,0,0,-1.4195,-1.4203,-1.4226,-1.4227,-1.4233,-1.4253,-1.4258,-1.427,-1.4284,-1.4289,-1.4302,-1.4314,-1.4322,-1.4327,-1.4335,-1.4335,-1.434,-1.4334,-1.4331,-1.4329,-1.4329,-1.4331,-1.4329,-1.4351,-1.4351,-1.4351,0,0,-1.4183,-1.4199,-1.4202,-1.4221,-1.4233,-1.424,-1.4257,-1.4263,-1.4269,-1.4289,-1.4296,-1.4306,-1.432,-1.4323,-1.4324,-1.433,-1.4324,-1.4328,-1.4327,-1.4327,-1.433,-1.4328,-1.4326,-1.435,-1.4351,-1.4351,0,0,-1.4166,-1.4178,-1.4181,-1.4193,-1.421,-1.4224,-1.4225,-1.4245,-1.4253,-1.426,-1.4276,-1.4282,-1.4295,-1.4305,-1.4312,-1.43,-1.4312,-1.4302,-1.429,-1.4292,-1.429,-1.4289,-1.4286,-1.4284,-1.4301,-1.4301,-1.4301,0,-1.4148,-1.4161,-1.4181,-1.4187,-1.4195,-1.4216,-1.4219,-1.4229,-1.4247,-1.4252,-1.4258,-1.4277,-1.4287,-1.4294,-1.4291,-1.4295,-1.4297,-1.43,-1.4289,-1.4288,-1.4287,-1.4284,-1.4283,-1.43,-1.43,-1.43,-1.43,0,-1.414,-1.4149,-1.4149,-1.4169,-1.4177,-1.4181,-1.4201,-1.4206,-1.4218,-1.4231,-1.4237,-1.4251,-1.4264,-1.4266,-1.4276,-1.4274,-1.4277,-1.4286,-1.4297,-1.4283,-1.4281,-1.428,-1.4298,-1.4299,-1.4299,-1.4299,0,0,-1.4106,-1.4138,-1.4138,-1.4148,-1.4169,-1.4176,-1.4181,-1.4195,-1.42,-1.4212,-1.4217,-1.4229,-1.4238,-1.4245,-1.4257,-1.4259,-1.425,-1.4267,-1.4268,-1.4265,-1.425,-1.4244,-1.4242,-1.4257,-1.4257,-1.4257,-1.4249,0,-1.4093,-1.4106,-1.4124,-1.4131,-1.414,-1.416,-1.4165,-1.4178,-1.419,-1.4198,-1.4211,-1.422,-1.423,-1.4235,-1.4237,-1.4251,-1.4247,-1.4251,-1.4263,-1.4263,-1.426,-1.4241,-1.4234,-1.4226,-1.4248,-1.4248,-1.4248,0,-1.408,-1.4094,-1.4102,-1.4124,-1.4128,-1.4133,-1.4148,-1.4155,-1.4171,-1.418,-1.4189,-1.4202,-1.4209,-1.4218,-1.4227,-1.423,-1.4235,-1.4242,-1.4243,-1.4245,-1.4255,-1.4244,-1.4223,-1.4223,-1.4246,-1.4246,-1.4246,0,-1.4056,-1.4076,-1.4084,-1.4092,-1.4118,-1.4121,-1.4131,-1.4147,-1.4155,-1.4167,-1.4173,-1.4185,-1.4191,-1.42,-1.4216,-1.4221,-1.4224,-1.4235,-1.4232,-1.4232,-1.4232,-1.4232,-1.4214,-1.4234,-1.4234,-1.4234,-1.4234,0,-1.4041,-1.4045,-1.4074,-1.4079,-1.4085,-1.4105,-1.411,-1.4122,-1.4137,-1.4144,-1.4161,-1.4167,-1.4187,-1.4196,-1.4208,-1.4215,-1.4217,-1.4224,-1.4228,-1.4224,-1.4223,-1.4228,-1.423,-1.4234,-1.4234,-1.4234,-1.4234,0,-1.4016,-1.4035,-1.4046,-1.407,-1.4076,-1.408,-1.41,-1.4105,-1.4119,-1.4128,-1.4131,-1.4151,-1.4162,-1.4179,-1.4194,-1.4203,-1.4208,-1.4212,-1.4203,-1.4205,-1.4202,-1.4203,-1.4187,-1.4187,-1.4206,-1.4206,-1.4206,0,-1.4005,-1.401,-1.4035,-1.4043,-1.4053,-1.4064,-1.4072,-1.4092,-1.41,-1.4119,-1.4122,-1.4135,-1.4146,-1.4162,-1.4178,-1.419,-1.4196,-1.419,-1.4198,-1.4194,-1.4198,-1.4198,-1.4199,-1.4188,-1.4188,-1.4188,-1.4187,0,-1.3985,-1.3995,-1.4008,-1.4024,-1.4034,-1.4048,-1.4061,-1.4066,-1.4089,-1.4096,-1.4109,-1.4118,-1.4135,-1.4147,-1.4161,-1.4171,-1.4183,-1.4185,-1.4185,-1.4181,-1.4176,-1.418,-1.4199,-1.4185,-1.4185,-1.4186,-1.4186,-1.4186,-1.3968,-1.3974,-1.3994,-1.4007,-1.402,-1.4033,-1.404,-1.4055,-1.4066,-1.4083,-1.4093,-1.4105,-1.4121,-1.4142,-1.4152,-1.4161,-1.4166,-1.4166,-1.4166,-1.4166,-1.4165,-1.4174,-1.4163,-1.4163,-1.4163,-1.4163,-1.4163,0,-1.3951,-1.3965,-1.3977,-1.3997,-1.4008,-1.402,-1.4036,-1.4044,-1.4055,-1.4069,-1.4081,-1.4095,-1.4108,-1.4125,-1.4138,-1.4142,-1.4148,-1.4145,-1.4146,-1.4148,-1.4159,-1.4158,-1.414,-1.414,-1.414,-1.414,-1.414,-1.414,-1.3943,-1.3954,-1.3966,-1.3983,-1.3996,-1.401,-1.4018,-1.403,-1.4042,-1.4059,-1.407,-1.4081,-1.4097,-1.4112,-1.4123,-1.4128,-1.4133,-1.4128,-1.4134,-1.4145,-1.4147,-1.4149,-1.4148,-1.4129,-1.4129,-1.4123,-1.4123,-1.4123]}]]